Location: Unspecified
(0.0000°N, 0.0000°E)
Time: 08:40:43
(UTC+00:00)

deb Delta 104 - Pass Details

Date: 11 March 2026
Orbit: 1402 x 1485 km, 102.0° (Epoch: 18 April)

Event Time Altitude Azimuth Distance (km) Brightness Sun altitude
Rises 18:56:25 0° 176° (S) 4,489 ? -11.6°
Reaches altitude 10° 18:59:15 10° 181° (S) 3,520 ? -12.3°
Maximum altitude 19:07:05 51° 254° (WSW) 1,757 ? -14.3°
Drops below altitude 10° 19:15:03 10° 327° (NNW) 3,567 ? -16.2°
Sets 19:17:58 0° 332° (NNW) 4,554 ? -17.0°
